{"data":{"norad_id":59917,"intl_designator":"2024-105A","name":"2024-105A","alt_names":[],"object_type":"PAYLOAD","status":"ACTIVE","operator":null,"country":"PRC","launch_date":"2024-05-30","launch_site_code":"JSC","launch_vehicle":null,"mission":null,"orbit_class":"UNKNOWN","rcs_meters":null,"size_class":null,"mass_kg":null,"dimensions":null,"purposes":[],"wikipedia_slug":null,"has_3d_model":false,"image_url":null,"decayed_at":null,"tle_current":{"epoch":"2026-09-23T00:13:04.164672Z","epoch_age_seconds":58750,"freshness":"FRESH","line1":"1 59917U 24105A   26266.00907598  .00001754  00000+0  90828-4 0  9990","line2":"2 59917  97.5831 281.3568 0011670 246.4162 113.5846 15.17519726127865","mean_motion":15.17519726,"eccentricity":0.001167,"inclination_deg":97.5831,"raan_deg":281.3568,"arg_perigee_deg":246.4162,"mean_anomaly_deg":113.5846,"bstar":9.0828e-5,"rev_number":12786,"period_min":94.891682482156,"perigee_km":505.29712115146,"apogee_km":521.38182724224,"semimajor_km":6891.4764741968,"source":"CELESTRAK","updated_at":"2026-09-23T09:00:19.773107Z"}}}